星链-4338 (STARLINK-4338 )

导读 | 豆包AI

STARLINK-4338是美国SpaceX公司星链星座的卫星,于2022年7月11日发射升空。星链项目计划构建覆盖全球的巨型低轨卫星互联网星座,该卫星运行在近地轨道,设计寿命超5年,配备推进系统可自主规避碰撞,为全球提供高速卫星互联网接入服务,也引发了轨道拥堵和天文观测干扰等领域争议。

Basic Information
目录编号:
53055
目录名称:
STARLINK-4338
国际标识:
2022-077N
轨道中心:
EARTH
卫星名称:
星链-4338
卫星全名:
星链-4338 (STARLINK-4338 )
卫星状态:
在轨 (已飞行1343 天)
发射日期:
2022-07-11 UTC
国别 :
美国 (US)
星等 :
--
Orbit Information
数据来源 国际轨道数据 AOE轨道数据
星历时间 2026-03-14T18:52:25+0800
18小时前
查看轨道信息
2026-03-10T07:00:00+0800
5天前
查看轨道信息
半长轴 6927.681km 6927.607km
偏心率 0.000138 0.0001151
轨道倾角 97.603° 97.602°
近地点辐角 88.594° 86.414°
升交点赤经 255.877° 251.446°
平近点角 271.544° 46.095°
近地点 548.587km 548.672km
远地点 550.501km 550.268km
周期 95.640分钟 95.639分钟
每日圈数 15.056394 15.056635
Detailed Information
固有亮度:
5
最大亮度:
2.5
卫星平台:
Starlink v1.5
覆盖范围:
全球
运营商:
太空探索技术公司
运营商所在国:
美国
制造商(研发单位):
太空探索技术公司
制造商所在国:
美国
使用方式:
暂无
Satellite Introduction
星链(Starlink)计划是由太空探索技术公司(SpaceX)提出的一个巨型低轨卫星互联网星座项目,计划在2019年至2024年间在太空搭建由约1.2万颗卫星组成的“星链”网络,其中1584颗将部署在地球上空550千米处的近地轨道,并从2020年开始工作。该卫星仍在工作。
2D Orbit Map
3D Orbit Map
Orbit Altitude Analysis Chart
Orbit Inclination Analysis Chart
Orbit Comprehensive Analysis Chart
View Comprehensive Chart